Regional Weather Roundup
Issued by NWS

Home | Current Version | Previous Version | Graphics & Text | Print | Product List | Glossary On
Versions: 1 2 3 4 5 6 7 8 9 10 11 12 13 14 15 16 17 18 19 20 21 22 23 24 25 26 27 28 29 30 31 32 33 34 35 36 37 38 39 40 41 42 43 44 45 46 47 48 49 50
000
ASUS43 KMKX 270600
RWRWI

WISCONSIN REGIONAL WEATHER ROUNDUP
NATIONAL WEATHER SERVICE MILWAUKEE/SULLIVAN WI
100 AM CDT MON APR 27 2015

NOTE: "FAIR" INDICATES FEW OR NO CLOUDS BELOW 12,000 FEET WITH NO
SIGNIFICANT WEATHER AND/OR OBSTRUCTIONS TO VISIBILITY.

WIZ001-002-006>008-014>016-023>028-270700-
NORTHWEST WISCONSIN

CITY           SKY/WX    TMP DP  RH WIND       PRES   REMARKS
SUPERIOR ARPT  CLEAR     29  27  94 CALM      30.20S
ASHLAND        CLEAR     29  28  96 SW3       30.20R
6HR MIN TEMP:  29; 6HR MAX TEMP:  46;

HAYWARD        CLEAR     31  24  75 CALM      30.17S
6HR MIN TEMP:  31; 6HR MAX TEMP:  53;

SIREN          CLEAR     32  26  76 CALM      30.18R
CUMBERLAND     CLEAR     37  27  65 N5        30.16R WCI  34
RICE LAKE      CLEAR     35  29  79 CALM      30.18R
CHETEK         CLEAR     40  29  66 N7        30.16R
LADYSMITH      CLEAR     37  26  63 N6        30.16S WCI  33
6HR MIN TEMP:  37; 6HR MAX TEMP:  55;

EAU CLAIRE     CLEAR     42  24  49 N8        30.14R
6HR MIN TEMP:  41; 6HR MAX TEMP:  61;

MENOMONIE      CLEAR     44  23  43 N3        30.16R
6HR MIN TEMP:  44; 6HR MAX TEMP:  62;

NEW RICHMOND   CLEAR     39  26  59 NE5       30.16S
OSCEOLA        CLEAR     37  28  70 CALM      30.19S
$$

WIZ003>005-009-010-017-018-270700-
NORTH CENTRAL WISCONSIN

CITY           SKY/WX    TMP DP  RH WIND       PRES   REMARKS
MANITOWISH WTR CLEAR     33  28  83 CALM      30.14S
ARBOR VITAE    CLEAR     34  27  76 N3        30.14R
WOODRUFF       CLEAR     34  27  76 N3        30.14R
RHINELANDER    CLEAR     37  27  67 N3        30.14R
6HR MIN TEMP:  37; 6HR MAX TEMP:  52;

EAGLE RIVER    CLEAR     33  25  73 CALM      30.13S
LAND O LAKES   CLEAR     33  27  80 CALM      30.14S
PHILLIPS       CLEAR     33  25  71 NE3       30.14S
6HR MIN TEMP:  32; 6HR MAX TEMP:  50;

TOMAHAWK       CLEAR     34  27  77 CALM      30.14S
MEDFORD        CLEAR     38  28  68 NE7       30.13R WCI  32
MERRILL        CLEAR     38  30  73 CALM      30.13R
$$

WIZ029-030-035-036-043>047-270700-
CENTRAL WISCONSIN

CITY           SKY/WX    TMP DP  RH WIND       PRES   REMARKS
WAUSAU         CLEAR     42  30  62 CALM      30.11R
6HR MIN TEMP:  42; 6HR MAX TEMP:  58;

MOSINEE        CLEAR     41  30  65 CALM      30.13R
MARSHFIELD     CLEAR     42  28  57 NE6       30.12R
6HR MIN TEMP:  42; 6HR MAX TEMP:  60;

STEVENS POINT  CLEAR     35  27  72 CALM      30.13R
WAUPACA        CLEAR     38  31  78 N3        30.12S
6HR MIN TEMP:  38; 6HR MAX TEMP:  60;

WAUTOMA        NOT AVBL
WISC RAPIDS    CLEAR     42  27  55 NE3       30.13R
6HR MIN TEMP:  42; 6HR MAX TEMP:  61;

CAMP DOUGLAS   NOT AVBL
$$

WIZ011>013-019>022-031-037>040-048>050-270700-
NORTHEAST WISCONSIN

CITY           SKY/WX    TMP DP  RH WIND       PRES   REMARKS
ANTIGO         CLEAR     38  28  69 N6        30.12R WCI  33
SHAWANO        CLEAR     40  33  76 CALM      30.11S
OCONTO         CLEAR     37  30  75 CALM      30.10R
STURGEON BAY   CLEAR     41  28  60 N10       30.11S
6HR MIN TEMP:  41; 6HR MAX TEMP:  50;

GREEN BAY      CLEAR     40  33  76 NW6       30.10S
6HR MIN TEMP:  39; 6HR MAX TEMP:  53;

MANITOWOC      NOT AVBL
APPLETON       CLEAR     41  30  65 NE6       30.10S
CLINTONVILLE   CLEAR     36  30  80 CALM      30.11S
OSHKOSH        CLEAR     39  31  72 CALM      30.10S
6HR MIN TEMP:  39; 6HR MAX TEMP:  57;

$$

WIZ032>034-041-042-053>061-270700-
SOUTHWEST WISCONSIN

CITY           SKY/WX    TMP DP  RH WIND       PRES   REMARKS
LA CROSSE      CLEAR     47  28  47 NW6       30.12R
6HR MIN TEMP:  45; 6HR MAX TEMP:  63;

SPARTA         CLEAR     45  28  50 N7        30.12R
VIROQUA        CLEAR     44  29  55 NE8       30.09S
BOSCOBEL       CLEAR     35  31  85 CALM      30.09R
6HR MIN TEMP:  35; 6HR MAX TEMP:  62;

PRAIRIE DU CHI CLEAR     42  32  66 CALM      30.08S
PLATTEVILLE    CLEAR     41  30  64 N6        30.06R
$$

WIZ056-057-062-063-064-067-068-270700-
SOUTH CENTRAL WISCONSIN

CITY           SKY/WX    TMP DP  RH WIND       PRES   REMARKS
REEDSBURG      CLEAR     45  29  55 E6        30.11R
BARABOO/DELLS  CLEAR     41  29  63 E6        30.11R
LONE ROCK      NOT AVBL
MINERAL POINT  CLEAR     46  27  46 E12       30.07R
MADISON        CLEAR     40  28  62 E6        30.11R
6HR MIN TEMP:  40; 6HR MAX TEMP:  58;

MIDDLETON      CLEAR     44  28  53 E6        30.11R
WATERTOWN      CLEAR     37  31  79 CALM      30.09S
MONROE         CLEAR     41  30  65 E7        30.08R
JANESVILLE     CLEAR     37  28  70 NE5       30.09R WCI  34
$$

WIZ051-052-058>065-066-070>072-270700-
SOUTHEAST WISCONSIN

CITY           SKY/WX    TMP DP  RH WIND       PRES   REMARKS
MILWAUKEE      CLEAR     41  30  65 N8        30.09R
6HR MIN TEMP:  41; 6HR MAX TEMP:  45;

WAUKESHA       CLEAR     36  28  75 CALM      30.10R
MILWAUKEE/TIMM CLEAR     39  30  70 N5        30.09R
RACINE         CLEAR     40  31  70 N12       30.09R WCI  33
6HR MIN TEMP:  40; 6HR MAX TEMP:  45;

BURLINGTON     CLEAR     35  28  75 N5        30.09R WCI  31
KENOSHA        CLEAR     40  31  70 N7        30.07S
6HR MIN TEMP:  39; 6HR MAX TEMP:  49;

FOND DU LAC    CLEAR     40  31  70 N3        30.10R
6HR MIN TEMP:  39; 6HR MAX TEMP:  55;

SHEBOYGAN      CLEAR     37  30  75 NW6       30.09R WCI  32
6HR MIN TEMP:  37; 6HR MAX TEMP:  46;

WEST BEND      CLEAR     36  30  80 N5        30.08S WCI  32
JUNEAU         CLEAR     37  30  74 CALM      30.11R
$$

LSZ147-162-270700-
LAKE SUPERIOR

STATION/POSITION TIME  TEMP    WIND        PRES    WAVE
                       AIR SEA DIR/SP/G            HT/PER
                 (UTC) (F)     (DEG/KT/KT) (MB)    (FT/S)
W MID LAKE BUOY  0450   36 35  300/  6/  6 1023.4S   1
DEVILS ISLAND    0500   38      CALM  /  1 1023.1S
PORT WING        0540   31     160/  3/  4 1022.7R
SAXON HARBOR     0500   30     180/  2/  2 1022.0
$$

LMZ867-665-643>646-270700-
LAKE MICHIGAN

STATION/POSITION TIME  TEMP    WIND        PRES    WAVE
                       AIR SEA DIR/SP/G            HT/PER
                 (UTC) (F)     (DEG/KT/KT) (MB)    (FT/S)
CHAMBERS ISLAND  0500   42     310/  7/ 10 1019.0S
NORTHPORT PIER   0500   40     320/  5/  8 1018.6R
SISTER BAY       0517   41     360/  9/ 12   N/A
KEWAUNEE LAKESHO 0500   43     360/  5/  9 1017.7R
SHEBOYGAN LAKESH 0500   41      10/ 12/ 14 1019.3R
PORT WASHINGTON  0540   41     320/  4/  7 1019.3R
MILWAUKEE LAKESH 0500   42      10/ 13/ 15   N/A
KENOSHA   LAKESH 0500   43      10/ 18/ 21 1017.9R
$$

TC  - TEMPERATURE IN CELSIUS
VSB - VISIBILITY IN STATUTE MILES
WCI - WIND CHILL INDEX
HX  - HEAT INDEX




USA.gov is the U.S. government's official web portal to all federal, state and local government web resources and services.